Meath Environmental Platform

Observations for Trim Market St

Time AQI Temp °C Hum % Pres Pa CO μg/m³ H₂S μg/m³ NO μg/m³ NO₂ μg/m³ O₃ μg/m³ SO₂ μg/m³ PM1 μg/m³ PM2.5 μg/m³ PM10 μg/m³
Tuesday 18 August 2026
10:43 2 23.6 54 55,893 0 0 2.68 6.5 61.15 0 0 1.79 1.97
10:40 2 23.7 53 55,777 0 0 2.62 5.78 56.51 0 0 1.8 1.98
10:39 2 23.8 53 55,718 0 0 2.51 5.57 49.16 0 0 1.8 1.98
10:38 2 23.8 53 55,696 0 0 2.39 6.8 57.02 0 0 1.8 1.98
10:37 2 23.8 53 55,672 0 0 2.44 10.01 33.9 0 0 2.31 2.45
10:36 2 23.9 53 55,621 0 0 1.65 5.91 55.88 0 0 1.8 3.17
10:35 2 23.9 53 55,599 0.07 0 1.76 7.01 56.33 0 0 1.81 1.99
10:34 2 23.9 53 55,567 1.1 0 1.93 5.68 51.85 0 0 1.81 1.99
10:33 2 24 53 55,578 0.09 0 2.21 5.78 55.91 0 0.71 2.83 3.17
10:32 2 24 53 55,582 0 0 2.36 4.09 40.87 0 0 2.32 3.17
10:31 2 24 53 55,612 0 0 2.52 4.89 50.97 0 0 1.8 1.98
10:25 2 24.1 54 55,764 0 0 2.12 5.05 34.95 0 0 2.29 2.47
10:24 2 24.1 54 55,769 0 0 2.22 7.94 48.39 0 0 1.78 4.64
10:20 2 24.1 54 55,671 0 0 2.92 4.55 30.62 0 0 1.77 1.95
10:13 2 24.3 55 55,778 0.14 0 2.23 5.62 10.67 0 0 2.24 3.23
10:12 2 24.3 55 55,865 0.36 0 2.23 7.05 12.08 0 0 1.73 1.8
10:11 2 24.4 55 55,961 0.94 0 2.16 10.62 24.69 0 0 1.73 1.81
10:10 2 24.4 55 55,900 0.18 0 2.17 10.83 28.06 0 0 1.72 1.81
10:09 2 24.4 55 55,836 0.22 0 2.17 9.81 31.74 0 0 2.23 2.53
10:08 2 24.4 56 55,834 0.25 0 2.25 10.27 16.99 0 0 2.21 2.54